[[{"header":{"parameterUnit":"m.s-1","parameterCategory":1,"la1":30.2991,"la2":30.254,"lo1":-89.0895,"lo2":-89.0444,"dy":0.0017,"dx":0.0017,"nx":28,"ny":28,"refTime":"2025-08-18T21:00:00:Z","depth":0,"parameterNumber":2,"parameterNumberName":"U-component_of_WINDS"},"data":[0,0,0,0,0,0,0,0,0,0,0,0,0,0,0,0,0,0,0,0,0,0,0,0,0,0,0,0,0,0,0,0,0,0,0,0,0,0,0,0,0,0,0,0,0,0,0,0,0,0,0,0,0,0,0,0,0,0,0.0106,0.0107,0,0.0185,0.0186,0.0187,0.0231,0.0231,0.0231,0.0231,0.0314,0.0317,0.0319,0,0,0,0,0,0,0,0,0,0,0,0,0,-0.0003,-0.0002,0.0106,0.0107,0.0108,0.0185,0.0186,0.0187,0.0231,0.0231,0.0231,0.0232,0.0314,0.0316,0.0319,0,0,0,0,0,0,0,0,0,0,0,0,0,0.0057,-0.0001,0.0106,0.014,0.0143,0.0184,0.0186,0.0187,0.0231,0.0231,0.0231,0.0232,0.0313,0.0316,0.0319,0.0334,0,0,0.0329,0.033,0,0,0,0,0,0,0,0,0.0053,0.0061,0.0134,0.0137,0.0142,0.0198,0.0178,0.0236,0.0231,0.0198,0.0232,0.0232,0.0276,0.0282,0.0296,0.0338,0.0341,0.0329,0.0331,0.0332,0.0333,0,0,0,0,0,0,0,0.0049,0.0057,0.0138,0.0135,0.014,0.0151,0.016,0.0189,0.0235,0.0201,0.0204,0.0213,0.0278,0.0293,0.0299,0.0343,0.0329,0.0332,0.0333,0.0335,0.0399,0.0399,0,0,0,0,0,0,0.0039,0.0054,0.0135,0.014,0.0097,0.0153,0.0163,0.018,0.0235,0.0243,0.0212,0.0214,0.0288,0.0295,0.0302,0.0322,0.0332,0.0335,0.0337,0.0399,0.0399,0.0399,0,0,0,0,0,0,0.0037,0.0046,0.0132,0.0098,0.0109,0.0155,0.0174,0.0181,0.0197,0.0243,0.0252,0.0219,0.0288,0.0297,0.0325,0.0326,0.0336,0.0339,0.04,0.0399,0.0399,0.0363,0,0,0,0,0,0,0.0033,0.0045,0.0051,0.0097,0.0111,0.0153,0.0174,0.0183,0.0201,0.0205,0.0252,0.026,0.0289,0.032,0.0328,0.033,0.0342,0.04,0.0399,0.0399,0.0364,0.0361,0.0359,0,0,0,0,0,0.0029,0.0038,0.0051,0.006,0.0119,0.0153,0.0161,0.0194,0.0201,0.0208,0.0237,0.0259,0.0324,0.0323,0.0332,0.0335,0.04,0.0399,0.0399,0.0365,0.0362,0.0359,0,0,0,0,0,0,-0.0009,0.0045,0.0059,0.0084,0.0113,0.0161,0.017,0.0189,0.0218,0.022,0.026,0.027,0.0294,0.0317,0.0315,0.0351,0.0364,0.0366,0.0335,0.0333,0.033,0.0324,0.0344,0,0,0,0,0,-0.0015,0.0008,0.0054,0.0071,0.0085,0.0124,0.0141,0.0163,0.0196,0.0209,0.0241,0.0273,0.03,0.0318,0.0346,0.0368,0.0378,0.0374,0.0371,0.0369,0.037,0.0382,0.0381,0.0398,0.0398,0.0398,0,0,-0.0026,0.0006,0.0018,0.0064,0.009,0.0113,0.0135,0.0159,0.0176,0.0213,0.0241,0.0265,0.0303,0.0327,0.034,0.0348,0.0367,0.0369,0.0366,0.0369,0.0382,0.038,0.0379,0.0398,0.0398,0.0398,0,0,-0.0035,-0.0008,0.0008,0.0033,0.0071,0.0098,0.0101,0.0146,0.0163,0.0191,0.0219,0.024,0.0287,0.0313,0.0332,0.0331,0.0351,0.0339,0.0326,0.0337,0.0336,0.0335,0.0334,0.0333,0.034,0.034,0.034,0,-0.0053,-0.0018,0.0015,0.0036,0.0055,0.0088,0.0106,0.0128,0.0174,0.0187,0.0194,0.0253,0.0281,0.0311,0.0311,0.0326,0.0331,0.0334,0.0333,0.0333,0.0332,0.0332,0.0331,0.0338,0.0338,0.0338,0.0339,0,-0.0043,-0.002,-0.0011,0.0031,0.0051,0.007,0.0107,0.0123,0.0143,0.0168,0.0196,0.0231,0.0266,0.0275,0.0295,0.0308,0.0311,0.0326,0.0339,0.0328,0.0328,0.0329,0.0335,0.0336,0.0337,0.0337,0,0,-0.0073,-0.0014,-0.0012,0.0007,0.0051,0.0071,0.0091,0.0124,0.0137,0.0167,0.0185,0.0224,0.0236,0.0258,0.0282,0.0292,0.0288,0.0305,0.0306,0.03,0.0303,0.0292,0.0291,0.0301,0.0301,0.0302,0.03,0,-0.0076,-0.0038,-0.0009,0.0018,0.004,0.0071,0.0089,0.0118,0.0142,0.0164,0.0191,0.0217,0.0232,0.0245,0.0257,0.0286,0.0289,0.0286,0.0319,0.0319,0.0308,0.0291,0.028,0.0276,0.03,0.03,0.03,0,-0.0074,-0.0047,-0.0018,0.0022,0.0033,0.0048,0.008,0.0101,0.0135,0.0151,0.0174,0.0198,0.0221,0.0232,0.0264,0.0262,0.0277,0.0293,0.0293,0.0298,0.0309,0.0295,0.0276,0.0275,0.0301,0.0301,0.0301,0,-0.01,-0.0055,-0.0033,-0.0017,0.0031,0.0041,0.0061,0.0095,0.0112,0.0141,0.0152,0.0183,0.02,0.0224,0.0255,0.026,0.0284,0.0297,0.0298,0.0297,0.0302,0.0301,0.0285,0.0312,0.0312,0.0312,0.0312,0,-0.0106,-0.009,-0.0044,-0.003,-0.0011,0.0023,0.0041,0.0064,0.0093,0.0112,0.0141,0.0158,0.0199,0.0221,0.0246,0.0268,0.0276,0.029,0.0296,0.0287,0.0285,0.0298,0.0298,0.0311,0.0312,0.0312,0.0312,0,-0.0131,-0.0099,-0.0073,-0.003,-0.0019,-0.0007,0.003,0.0044,0.0069,0.0092,0.01,0.0139,0.0166,0.02,0.0239,0.0255,0.0275,0.0285,0.0263,0.0267,0.0265,0.0265,0.0256,0.0257,0.0283,0.0283,0.0283,0,-0.0137,-0.0124,-0.0081,-0.0067,-0.0047,-0.0024,-0.0007,0.0027,0.0045,0.0083,0.0093,0.0122,0.0147,0.0189,0.0221,0.0251,0.0261,0.0256,0.0266,0.0256,0.0261,0.0259,0.026,0.0254,0.0253,0.0253,0.0253,0,-0.0152,-0.0137,-0.0113,-0.0084,-0.0064,-0.0039,-0.0013,-0.0003,0.0037,0.0055,0.0082,0.0102,0.014,0.0169,0.0202,0.0223,0.0244,0.0249,0.0251,0.0241,0.0228,0.0235,0.0256,0.0249,0.025,0.025,0.025,0.025,-0.0168,-0.0156,-0.0123,-0.0098,-0.0075,-0.0051,-0.0036,-0.001,0.0014,0.0047,0.0066,0.0093,0.0125,0.0171,0.0192,0.0213,0.0221,0.0223,0.0224,0.0224,0.0221,0.0224,0.022,0.022,0.022,0.022,0.022,0,-0.0182,-0.016,-0.0137,-0.0102,-0.0082,-0.0065,-0.0035,-0.0019,0.0004,0.0031,0.0055,0.0086,0.0114,0.0147,0.0177,0.0188,0.0198,0.0194,0.0194,0.0198,0.0213,0.0208,0.0185,0.0185,0.0185,0.0185,0.0185,0.0186,-0.0187,-0.0165,-0.0147,-0.0114,-0.0092,-0.0066,-0.0051,-0.0029,-0.0007,0.0027,0.0049,0.007,0.0101,0.0132,0.0158,0.0167,0.0177,0.017,0.0182,0.0194,0.0198,0.02,0.0196,0.0172,0.0172,0.0166,0.0166,0.0166]},{"header":{"parameterUnit":"m.s-1","parameterCategory":1,"la1":30.2991,"la2":30.254,"lo1":-89.0895,"lo2":-89.0444,"dy":0.0017,"dx":0.0017,"nx":28,"ny":28,"refTime":"2025-08-18T21:00:00:Z","depth":0,"parameterNumber":3,"parameterNumberName":"V-component_of_WINDS"},"data":[0,0,0,0,0,0,0,0,0,0,0,0,0,0,0,0,0,0,0,0,0,0,0,0,0,0,0,0,0,0,0,0,0,0,0,0,0,0,0,0,0,0,0,0,0,0,0,0,0,0,0,0,0,0,0,0,0,0,3.6319,3.6319,0,3.6309,3.6309,3.6309,3.6333,3.6333,3.6334,3.6335,3.6323,3.6322,3.6321,0,0,0,0,0,0,0,0,0,0,0,0,0,3.6353,3.6352,3.6319,3.6319,3.6319,3.6309,3.6309,3.6309,3.6332,3.6333,3.6334,3.6335,3.6323,3.6322,3.632,0,0,0,0,0,0,0,0,0,0,0,0,0,3.634,3.6352,3.6319,3.6329,3.633,3.6309,3.6309,3.6309,3.6332,3.6333,3.6334,3.6336,3.6323,3.6322,3.632,3.6288,0,0,3.6316,3.6315,0,0,0,0,0,0,0,0,3.6341,3.6339,3.6328,3.6328,3.6329,3.6323,3.6317,3.6302,3.6332,3.6331,3.6335,3.6336,3.6322,3.632,3.6316,3.6288,3.6287,3.6315,3.6315,3.6314,3.6313,0,0,0,0,0,0,0,3.6342,3.634,3.6315,3.6327,3.6328,3.6333,3.6332,3.6314,3.632,3.6331,3.6333,3.6332,3.6322,3.6317,3.6316,3.6287,3.6315,3.6314,3.6313,3.6313,3.6229,3.6228,0,0,0,0,0,0,3.6342,3.634,3.6315,3.6315,3.6338,3.6331,3.6331,3.6324,3.6321,3.6321,3.6331,3.6333,3.632,3.6318,3.6316,3.6276,3.6314,3.6312,3.6312,3.623,3.6229,3.6227,0,0,0,0,0,0,3.6343,3.6339,3.6316,3.6328,3.6325,3.633,3.6322,3.6323,3.6318,3.632,3.6321,3.6325,3.632,3.6318,3.6294,3.6276,3.6312,3.631,3.6232,3.623,3.6228,3.6197,0,0,0,0,0,0,3.6343,3.634,3.6329,3.6327,3.6324,3.6296,3.6321,3.6322,3.6316,3.6319,3.6315,3.6315,3.6321,3.6297,3.6293,3.6274,3.6309,3.6233,3.6231,3.6229,3.62,3.6194,3.619,0,0,0,0,0,3.6345,3.632,3.6328,3.6325,3.6311,3.6295,3.6293,3.6301,3.6315,3.6303,3.6303,3.6315,3.6279,3.6294,3.629,3.6271,3.6235,3.6232,3.6229,3.6202,3.6196,3.619,0,0,0,0,0,0,3.6319,3.632,3.6329,3.6304,3.6299,3.6299,3.6284,3.6294,3.6284,3.6287,3.6296,3.6295,3.6269,3.6268,3.6285,3.6238,3.6259,3.6255,3.624,3.6234,3.6229,3.6229,3.6308,0,0,0,0,0,3.631,3.6298,3.63,3.6277,3.6275,3.628,3.6273,3.6279,3.6274,3.6272,3.6271,3.6265,3.6252,3.6243,3.6231,3.62,3.6198,3.6185,3.618,3.6175,3.6171,3.6152,3.6145,3.6218,3.6218,3.6218,0,0,3.6292,3.6292,3.6283,3.6272,3.6269,3.6254,3.6278,3.6262,3.6251,3.627,3.6247,3.6246,3.6239,3.6211,3.6199,3.6209,3.6151,3.6172,3.6168,3.6167,3.6148,3.6141,3.6135,3.6216,3.6216,3.6216,0,0,3.6251,3.6251,3.6231,3.6227,3.6223,3.6226,3.6221,3.6219,3.6219,3.6197,3.621,3.6196,3.6174,3.6168,3.6162,3.6117,3.6126,3.6113,3.6086,3.6067,3.6061,3.6056,3.6037,3.6031,3.6109,3.6109,3.6109,0,3.6229,3.6209,3.6219,3.6202,3.6196,3.6212,3.6191,3.6187,3.6178,3.6172,3.6184,3.6155,3.6152,3.6121,3.611,3.6106,3.6099,3.6113,3.6061,3.6056,3.6051,3.6034,3.6027,3.6107,3.6107,3.6107,3.6108,0,3.6181,3.6166,3.6151,3.6142,3.6134,3.6115,3.612,3.6111,3.6117,3.6119,3.6094,3.6091,3.6078,3.6071,3.6078,3.6041,3.6047,3.606,3.608,3.6042,3.6026,3.6019,3.6104,3.6105,3.6106,3.6106,0,0,3.6123,3.612,3.6114,3.6109,3.6104,3.6092,3.6073,3.606,3.605,3.6044,3.6026,3.6006,3.6017,3.601,3.6016,3.6,3.5961,3.6014,3.6014,3.6002,3.5916,3.5905,3.5897,3.5968,3.5966,3.5966,3.5916,0,3.6081,3.6049,3.6057,3.6024,3.6009,3.6024,3.6007,3.6001,3.6001,3.5988,3.5988,3.5972,3.599,3.5985,3.597,3.5969,3.5943,3.5973,3.5949,3.5948,3.5948,3.5889,3.5877,3.5831,3.591,3.5909,3.5908,0,3.6028,3.6019,3.5985,3.598,3.5975,3.5959,3.5947,3.5934,3.5927,3.5928,3.592,3.5928,3.5906,3.5928,3.5897,3.5917,3.5908,3.5905,3.5903,3.59,3.5924,3.5881,3.5816,3.5808,3.5898,3.5899,3.59,0,3.5987,3.5966,3.5942,3.5938,3.5933,3.5921,3.5918,3.5912,3.5903,3.5892,3.5886,3.5872,3.5864,3.5853,3.5856,3.5872,3.5823,3.5846,3.5821,3.5821,3.5809,3.5809,3.5739,3.5806,3.5806,3.5806,3.5807,0,3.5938,3.5916,3.5923,3.5908,3.5883,3.5892,3.5866,3.5864,3.5859,3.5842,3.5854,3.5838,3.5845,3.5829,3.5831,3.5803,3.58,3.5799,3.5799,3.5796,3.5796,3.5789,3.5792,3.5805,3.5805,3.5805,3.5806,0,3.5887,3.5891,3.5866,3.5863,3.5862,3.5843,3.5839,3.5824,3.5826,3.5804,3.58,3.5801,3.5782,3.5785,3.5764,3.5765,3.573,3.5735,3.5732,3.5733,3.5707,3.5708,3.5628,3.5617,3.5693,3.5693,3.5692,0,3.5855,3.5838,3.5833,3.5823,3.5819,3.5804,3.5794,3.5802,3.5791,3.578,3.5766,3.5748,3.5735,3.5703,3.5701,3.5684,3.5688,3.5661,3.5686,3.5682,3.5685,3.5685,3.5682,3.5656,3.5655,3.5654,3.5654,0,3.5796,3.5798,3.5785,3.5772,3.5761,3.5751,3.5742,3.5733,3.5739,3.5726,3.5707,3.5697,3.5675,3.5656,3.564,3.5635,3.5644,3.5646,3.5639,3.5635,3.5633,3.5631,3.5717,3.5647,3.5648,3.5648,3.5649,3.5649,3.5751,3.5736,3.573,3.5714,3.5708,3.5699,3.5684,3.5683,3.5668,3.5651,3.5656,3.5634,3.5624,3.5604,3.5597,3.5578,3.5588,3.5578,3.5576,3.5572,3.5568,3.5637,3.5576,3.5576,3.5576,3.5576,3.5576,0,3.5691,3.5688,3.5673,3.566,3.5647,3.5658,3.5648,3.5636,3.5617,3.5608,3.5594,3.5571,3.5552,3.5548,3.553,3.5515,3.5518,3.551,3.551,3.5508,3.5562,3.5569,3.5507,3.5507,3.5507,3.5507,3.5507,3.5507,3.5658,3.5632,3.5634,3.5604,3.56,3.558,3.5572,3.5563,3.5556,3.553,3.5515,3.5512,3.5504,3.5485,3.5468,3.5467,3.5458,3.5447,3.5447,3.5498,3.5505,3.5511,3.5517,3.5446,3.5446,3.5395,3.5394,3.5394]}]]